Total_Precipitation_Accumulation
2.07 2.15 2.14 2.08 1.97 2.30 2.71 2.93 2.65 2.93 2.95 2.55 2.21 2.09 2.07 2.04 2.23 2.44 2.32 2.47 2.38 2.33 2.55 2.59 2.39 2.17 2.02 1.68 1.43 1.23 1.07 1.02 0.95 0.78 0.65 0.63 0.57 0.50 0.48 0.48 0.47 0.44 0.41
2.58 2.63 2.49 2.41 2.20 2.21 2.50 2.71 2.70 2.93 2.82 2.67 2.07 1.95 1.91 2.06 2.24 2.30 2.33 2.79 2.75 2.49 2.48 2.62 2.64 2.49 2.33 2.18 1.85 1.57 1.36 1.23 1.13 0.90 0.70 0.65 0.61 0.56 0.52 0.53 0.57 0.52 0.41
3.09 2.97 2.75 2.42 2.30 2.35 2.50 2.47 2.49 2.56 2.42 2.34 2.10 2.17 2.12 2.03 1.92 1.99 2.15 2.37 2.31 2.16 2.16 2.27 2.52 2.67 2.79 2.78 2.56 2.36 1.91 1.52 1.28 1.02 0.79 0.64 0.57 0.52 0.50 0.52 0.58 0.56 0.43
3.01 2.94 2.63 2.25 2.32 2.42 2.41 2.41 2.27 2.33 2.35 2.40 2.40 2.23 2.30 2.17 1.77 1.75 1.80 1.77 1.88 1.73 1.92 2.07 2.19 2.40 2.84 3.23 3.37 3.23 2.72 2.03 1.54 1.21 0.98 0.78 0.64 0.53 0.48 0.48 0.55 0.54 0.42
2.84 2.90 2.57 2.44 2.41 2.42 2.28 2.09 2.34 2.47 2.46 2.48 2.29 2.18 1.96 1.76 1.53 1.35 1.30 1.19 1.39 1.58 1.78 1.84 1.94 2.04 2.52 3.29 3.95 4.13 3.75 2.90 2.16 1.66 1.40 1.16 0.95 0.74 0.59 0.55 0.53 0.47 0.40
2.48 2.63 2.40 2.33 2.45 2.49 2.30 2.31 2.52 2.52 2.26 2.33 2.10 1.92 1.72 1.43 1.29 1.15 0.99 0.98 0.97 0.95 1.21 1.59 1.90 1.63 2.00 2.68 3.34 3.85 4.16 3.82 3.03 2.41 1.96 1.60 1.38 1.14 0.85 0.73 0.64 0.56 0.49
2.14 2.40 2.22 2.44 2.37 2.24 2.07 2.06 2.15 2.15 1.89 2.13 2.31 1.87 1.41 1.17 1.04 0.89 0.89 0.96 0.90 0.96 1.21 1.59 1.82 1.94 1.80 1.79 2.11 2.64 3.52 3.95 3.69 3.13 2.64 2.22 1.90 1.60 1.21 1.00 0.87 0.74 0.66
2.25 2.09 2.20 2.07 2.03 2.09 1.90 1.80 1.94 1.94 1.69 1.97 2.09 2.03 1.50 1.27 1.03 0.71 0.77 0.81 0.89 1.09 1.15 1.29 1.62 1.84 1.77 2.05 1.68 1.65 2.42 3.19 3.70 3.68 3.23 2.67 2.25 1.89 1.54 1.31 1.09 0.87 0.76
2.50 2.33 2.16 1.99 1.93 1.79 1.80 1.79 1.84 1.84 1.75 1.74 1.81 1.96 1.55 1.23 1.03 0.71 0.62 0.70 0.96 1.23 1.23 1.33 1.37 1.54 1.60 1.85 1.89 1.73 1.68 2.07 2.86 3.72 3.83 3.21 2.50 1.92 1.57 1.53 1.45 1.20 1.00
2.73 2.45 2.24 2.03 1.83 1.67 1.79 1.54 1.61 1.82 1.88 1.63 1.61 1.59 1.49 1.56 1.49 1.12 0.79 0.70 0.93 1.11 1.18 1.11 1.20 1.44 1.61 1.83 1.98 1.99 1.72 1.64 2.09 2.99 3.58 3.53 3.01 2.36 1.92 1.86 2.04 1.93 1.50
2.50 2.20 2.09 2.03 1.84 1.65 1.61 1.57 1.73 1.73 1.69 1.60 1.62 1.58 1.67 1.77 1.61 1.48 1.18 1.05 1.08 1.00 1.01 1.05 1.20 1.37 1.56 1.82 2.12 2.15 2.27 1.95 1.78 1.99 2.45 2.81 2.95 2.70 2.34 2.28 2.70 2.95 2.60
2.12 2.01 1.93 1.93 1.79 1.65 1.61 1.57 1.66 1.72 1.75 1.77 1.72 1.66 1.71 1.69 1.69 1.85 1.62 1.42 1.35 1.15 1.10 1.18 1.34 1.48 1.58 1.73 1.77 1.93 2.03 2.06 1.94 1.85 1.89 2.05 2.32 2.51 2.57 2.66 2.96 3.32 3.46
1.69 1.71 1.78 1.85 1.70 1.63 1.69 1.79 1.74 1.66 1.73 1.81 1.74 1.78 1.81 1.74 1.83 1.99 1.95 1.69 1.56 1.43 1.47 1.45 1.43 1.58 1.56 1.75 1.92 1.83 1.59 1.63 1.63 1.61 1.57 1.54 1.62 1.87 2.08 2.24 2.57 2.95 3.28
1.54 1.59 1.75 1.82 1.73 1.64 1.59 1.82 1.80 1.79 1.85 1.83 1.73 1.94 1.97 1.78 1.96 2.16 2.26 2.25 2.01 1.89 1.93 1.91 1.64 1.56 1.61 1.73 1.89 1.77 1.60 1.53 1.29 1.19 1.16 1.19 1.22 1.31 1.45 1.63 1.84 2.05 2.34
1.63 1.71 1.76 1.90 1.94 1.96 1.94 2.02 1.94 1.96 2.11 2.09 2.03 2.12 2.13 2.00 2.04 2.14 2.34 2.48 2.48 2.33 2.22 2.14 1.87 1.69 1.63 1.61 1.71 1.67 1.78 1.66 1.27 1.06 0.98 0.95 0.95 0.99 1.06 1.20 1.37 1.52 1.66
1.75 1.78 1.78 1.82 1.91 1.99 2.01 2.10 2.06 2.13 2.31 2.32 2.38 2.46 2.35 2.13 2.18 2.22 2.31 2.50 2.69 2.71 2.48 2.16 1.93 1.75 1.70 1.55 1.60 1.48 1.57 1.51 1.18 1.04 0.93 0.86 0.81 0.82 0.87 0.93 1.03 1.18 1.31
1.72 1.76 1.76 1.72 1.70 1.80 1.97 2.11 2.09 2.24 2.36 2.41 2.42 2.35 2.26 2.28 2.36 2.28 2.36 2.47 2.63 2.79 2.56 2.25 2.09 2.02 2.00 1.90 1.78 1.52 1.34 1.24 1.11 1.13 0.99 0.86 0.83 0.85 0.89 0.94 0.99 1.06 1.16
1.79 1.75 1.72 1.69 1.63 1.70 1.93 2.08 2.20 2.45 2.56 2.48 2.39 2.35 2.24 2.34 2.44 2.38 2.40 2.35 2.39 2.63 2.56 2.39 2.31 2.33 2.25 2.05 1.95 1.74 1.41 1.27 1.25 1.28 1.16 1.00 0.93 0.92 0.93 0.94 1.00 1.04 1.12
1.71 1.66 1.66 1.71 1.82 1.92 2.10 2.24 2.35 2.51 2.47 2.37 2.37 2.29 2.18 2.21 2.19 2.25 2.29 2.25 2.20 2.25 2.40 2.36 2.28 2.37 2.31 2.10 2.00 1.81 1.67 1.76 1.59 1.39 1.25 1.13 1.04 0.99 0.97 0.93 0.97 1.04 1.15
1.46 1.52 1.70 1.92 2.09 2.21 2.31 2.37 2.37 2.33 2.29 2.18 2.11 2.02 2.01 2.08 2.15 2.17 2.10 2.07 2.07 2.14 2.21 2.23 2.26 2.36 2.37 2.31 2.15 2.01 2.01 1.98 1.82 1.44 1.33 1.19 1.09 0.99 0.92 0.86 0.88 1.02 1.17
1.46 1.67 1.84 1.94 1.97 2.03 2.10 2.23 2.23 2.15 2.10 2.00 1.89 1.71 1.73 1.98 2.09 2.06 1.90 1.97 2.04 2.08 2.12 2.19 2.24 2.33 2.38 2.49 2.27 2.01 1.98 2.06 1.97 1.77 1.62 1.40 1.27 1.15 1.11 1.06 0.99 1.00 1.06
1.63 1.80 1.84 1.82 1.78 1.54 1.62 1.74 1.79 1.81 1.80 1.75 1.64 1.57 1.58 1.68 1.68 1.68 1.65 1.64 1.72 1.81 1.97 2.19 2.28 2.29 2.26 2.34 2.41 2.29 2.21 2.18 2.14 2.07 2.12 2.02 1.71 1.62 1.52 1.40 1.28 1.04 0.92
1.80 1.92 1.90 1.85 1.75 1.68 1.56 1.42 1.39 1.44 1.55 1.56 1.58 1.63 1.43 1.31 1.44 1.46 1.55 1.51 1.46 1.53 1.64 1.87 2.07 2.09 2.16 2.16 2.38 2.39 2.42 2.50 2.49 2.45 2.46 2.48 2.15 1.87 1.66 1.58 1.47 1.16 0.99
2.04 2.05 2.00 1.92 1.89 1.83 1.72 1.50 1.40 1.35 1.49 1.53 1.53 1.55 1.53 1.46 1.45 1.54 1.58 1.51 1.39 1.36 1.33 1.29 1.49 1.76 1.95 2.17 2.23 2.28 2.37 2.44 2.44 2.31 2.29 2.39 2.25 2.11 1.80 1.52 1.39 1.20 1.02
2.15 2.10 2.13 2.07 2.03 2.05 1.89 1.54 1.37 1.36 1.53 1.56 1.56 1.53 1.50 1.46 1.50 1.37 1.33 1.34 1.34 1.31 1.15 1.14 1.22 1.42 1.59 1.65 1.85 2.08 2.26 2.23 2.17 1.97 1.82 1.93 2.01 2.03 1.99 1.77 1.41 1.29 1.10
2.17 2.13 2.13 2.17 2.11 2.11 2.01 1.52 1.29 1.29 1.48 1.53 1.60 1.57 1.47 1.35 1.31 1.18 1.16 1.29 1.28 1.26 1.26 1.19 1.10 1.12 1.19 1.31 1.37 1.44 1.71 1.90 1.83 1.78 1.56 1.48 1.47 1.57 1.73 1.60 1.37 1.28 1.24